Home > Weather > Funchal > Past weeks

Flag for Portugal Weather for the Past 2 Weeks in Funchal, Madeira, Portugal

Now
59 °F

Passing clouds.


Feels Like: 58 °F
Forecast: 60 / 68 °F
Wind: 6 mph from Southwest

Location: Aeroporto Da Madeira

Current Time: Feb 8, 2016 at 4:42:05 AM

Latest Report: Feb 8, 2016 at 3:30 AM


Visibility: N/A

Pressure: 30.45 "Hg

Humidity: 82%

Dew point: 54 °F

Location of FunchalLocation

Historic Weather in Funchal — Graph

°F

Funchal Temperature Yesterday

Maximum temperature yesterday: 68 °F (at 1:00 PM)
Minimum temperature yesterday: 57 °F (at 2:30 AM)
Average temperature yesterday: 63 °F

High & Low Weather Summary for the Past Weeks

 TemperatureHumidityPressure
High72 °F (Jan 24, 2:30 PM)94% (Jan 24, 7:30 PM)30.66 "Hg (Jan 24, 7:30 PM)
Low57 °F (Feb 7, 2:30 AM)55% (Jan 29, 11:00 PM)30.15 "Hg (Jan 24, 4:00 AM)
Average63 °F71%30.41 "Hg
* Reported Jan 24 3:00 AM — Feb 8 3:00 AM, Funchal, Weather by CustomWeather, © 2016

Note: Actual official high and low records may vary slightly from our data, if they occured in-between our weather recording intervals... More about our weather records

Advertising

Funchal Weather History for the Previous 24 Hours

 ConditionsComfort  
Time TempWeatherWind HumidityBarometerVisibility
3:00 AM
Mon, Feb 8
59 °FPassing clouds.3 mph82%30.45 "HgN/A
2:30 AM61 °FPassing clouds.2 mph77%30.45 "HgN/A
2:00 AM61 °FPassing clouds.2 mph77%30.45 "HgN/A
1:30 AM61 °FPassing clouds.3 mph72%30.45 "HgN/A
1:00 AM61 °FPassing clouds.2 mph77%30.45 "HgN/A
12:30 AM59 °FPassing clouds.3 mph77%30.48 "HgN/A
12:00 AM61 °FPassing clouds.5 mph72%30.48 "HgN/A
11:30 PM
Sun, Feb 7
61 °FPassing clouds.No wind72%30.48 "HgN/A
11:00 PM61 °FPassing clouds.3 mph72%30.48 "HgN/A
10:30 PM61 °FPassing clouds.6 mph77%30.48 "HgN/A
10:00 PM64 °FPassing clouds.5 mph73%30.45 "HgN/A
9:30 PM64 °FPassing clouds.3 mph73%30.45 "HgN/A
9:00 PM64 °FPassing clouds.3 mph73%30.45 "HgN/A
8:30 PM64 °FPassing clouds.1 mph73%30.45 "HgN/A
8:00 PM64 °FPassing clouds.3 mph73%30.45 "HgN/A
7:30 PM64 °FScattered clouds.3 mph73%30.45 "HgN/A
7:00 PM64 °FScattered clouds.3 mph73%30.45 "HgN/A
6:30 PM64 °FPassing clouds.2 mph68%30.42 "HgN/A
6:00 PM64 °FPassing clouds.5 mph73%30.42 "HgN/A
5:30 PM66 °FPassing clouds.2 mph68%30.42 "HgN/A
5:00 PM66 °FPassing clouds.5 mph68%30.42 "HgN/A
4:30 PM66 °FPassing clouds.9 mph68%30.42 "HgN/A
4:00 PM66 °FPassing clouds.9 mph68%30.42 "HgN/A
3:30 PM68 °FPassing clouds.13 mph69%30.42 "HgN/A
3:00 PM68 °FPassing clouds.12 mph64%30.42 "HgN/A
2:30 PM68 °FPassing clouds.12 mph64%30.42 "HgN/A
2:00 PM68 °FPassing clouds.12 mph64%30.45 "HgN/A
1:30 PM68 °FPassing clouds.9 mph60%30.45 "HgN/A
1:00 PM68 °FPassing clouds.7 mph60%30.45 "HgN/A
12:30 PM66 °FPassing clouds.6 mph64%30.45 "HgN/A
12:00 PM66 °FPassing clouds.7 mph64%30.48 "HgN/A
11:30 AM66 °FPassing clouds.6 mph60%30.48 "HgN/A
11:00 AM66 °FPassing clouds.7 mph64%30.45 "HgN/A
10:30 AM66 °FSunny.6 mph64%30.45 "Hg10 mi
10:00 AM64 °FSunny.6 mph64%30.45 "Hg10 mi
9:30 AM63 °FSunny.2 mph64%30.42 "Hg10 mi
9:00 AM61 °FSunny.2 mph68%30.42 "Hg10 mi
8:30 AM59 °FClear.5 mph68%30.42 "Hg10 mi
8:00 AM57 °FPassing clouds.3 mph77%30.42 "HgN/A
7:30 AM57 °FClear.5 mph72%30.42 "Hg10 mi
7:00 AM57 °FPassing clouds.6 mph72%30.39 "HgN/A
6:30 AM57 °FPassing clouds.3 mph72%30.39 "HgN/A
6:00 AM57 °FPassing clouds.3 mph72%30.39 "HgN/A
5:30 AM59 °FPassing clouds.5 mph68%30.39 "HgN/A
5:00 AM59 °FPassing clouds.6 mph68%30.39 "HgN/A
4:30 AM61 °FPassing clouds.7 mph63%30.39 "HgN/A
4:00 AM61 °FPassing clouds.8 mph63%30.39 "HgN/A
Weather by CustomWeather, © 2016

See weather overviewHow to use our weather pages